TimeEDT,TemperatureF,Dew PointF,Humidity,Sea Level PressureIn,VisibilityMPH,Wind Direction,Wind SpeedMPH,Gust SpeedMPH,PrecipitationIn,Events,Conditions,WindDirDegrees,DateUTC
12:53 AM,53.1,42.1,66,30.27,10.0,South,9.2,-,N/A,,Clear,170,2013-10-09 04:53:00
1:53 AM,51.1,42.1,71,30.26,10.0,South,8.1,-,N/A,,Clear,170,2013-10-09 05:53:00
2:53 AM,50.0,43.0,77,30.27,10.0,South,9.2,-,N/A,,Clear,180,2013-10-09 06:53:00
3:53 AM,46.9,42.1,83,30.27,10.0,Calm,Calm,-,N/A,,Clear,0,2013-10-09 07:53:00
4:53 AM,46.0,41.0,83,30.28,10.0,South,4.6,-,N/A,,Clear,170,2013-10-09 08:53:00
5:53 AM,48.0,43.0,83,30.30,10.0,South,3.5,-,N/A,,Clear,170,2013-10-09 09:53:00
6:53 AM,46.9,42.1,83,30.31,10.0,Calm,Calm,-,N/A,,Clear,0,2013-10-09 10:53:00
7:53 AM,45.0,41.0,86,30.32,10.0,Calm,Calm,-,N/A,,Clear,0,2013-10-09 11:53:00
8:53 AM,51.1,46.9,86,30.34,10.0,South,3.5,-,N/A,,Clear,170,2013-10-09 12:53:00
9:53 AM,55.9,48.9,77,30.34,10.0,SSW,4.6,-,N/A,,Clear,200,2013-10-09 13:53:00
10:53 AM,61.0,48.0,62,30.33,10.0,SW,8.1,-,N/A,,Clear,220,2013-10-09 14:53:00
11:53 AM,64.9,45.0,48,30.32,10.0,SW,8.1,-,N/A,,Clear,230,2013-10-09 15:53:00
12:53 PM,68.0,44.1,42,30.31,10.0,South,3.5,-,N/A,,Clear,180,2013-10-09 16:53:00
1:53 PM,69.1,46.0,44,30.29,10.0,South,8.1,-,N/A,,Clear,180,2013-10-09 17:53:00
2:53 PM,70.0,44.1,39,30.27,10.0,South,8.1,-,N/A,,Clear,190,2013-10-09 18:53:00
3:53 PM,71.1,44.1,38,30.26,10.0,SE,5.8,-,N/A,,Clear,140,2013-10-09 19:53:00
4:53 PM,71.1,44.1,38,30.24,10.0,South,9.2,-,N/A,,Clear,170,2013-10-09 20:53:00
6:53 PM,66.0,45.0,47,30.22,10.0,SSE,4.6,-,N/A,,Clear,150,2013-10-09 22:53:00
7:53 PM,63.0,45.0,52,30.23,10.0,SSE,3.5,-,N/A,,Clear,150,2013-10-09 23:53:00
8:53 PM,57.0,46.0,67,30.25,10.0,SE,6.9,-,N/A,,Clear,130,2013-10-10 00:53:00
9:53 PM,55.9,44.1,64,30.25,10.0,SSE,6.9,-,N/A,,Clear,150,2013-10-10 01:53:00
10:53 PM,55.9,44.1,64,30.25,10.0,SSE,5.8,-,N/A,,Clear,160,2013-10-10 02:53:00
11:53 PM,55.0,44.1,67,30.25,10.0,SSE,9.2,-,N/A,,Clear,150,2013-10-10 03:53:00